Home   Weather   Ipswich   Past weeks

Flag for United Kingdom Past Weather in Ipswich, England, United Kingdom — Yesterday and Last 2 Weeks

Now
55 °F

Passing clouds.


Feels Like: 54 °F
Forecast: 48 / 55 °F
Wind: 6 mph from Southeast

Location: Wattisham

Current Time: May 1, 2017 at 12:01:37 am

Latest Report: Apr 30, 2017 at 10:50 pm


Visibility: N/A

Pressure: 29.50 "Hg

Humidity: 63%

Dew Point: 43 °F

Location of IpswichLocation

Past Weather in Ipswich — Graph

°F

Ipswich Temperature Yesterday

Maximum temperature yesterday: 61 °F (at 4:50 pm)
Minimum temperature yesterday: 45 °F (at 4:50 am)
Average temperature yesterday: 53 °F

High & Low Weather Summary for the Past Weeks

 TemperatureHumidityPressure
High61 °F (Apr 30, 4:50 pm)100% (Apr 17, 4:50 am)30.63 "Hg (Apr 17, 4:50 am)
Low30 °F (Apr 27, 4:50 am)34% (Apr 25, 1:50 pm)29.50 "Hg (Apr 30, 10:50 pm)
Average46 °F71%30.16 "Hg
* Reported Apr 15 10:50 pm — Apr 30 10:50 pm, Ipswich, Weather by CustomWeather, © 2017

Note: Actual official high and low records may vary slightly from our data, if they occured in-between our weather recording intervals... More about our weather records

Advertising

Ipswich Weather History for the Previous 24 Hours

Scroll right to see more
 ConditionsComfort  
Time TempWeatherWind HumidityBarometerVisibility
10:50 pm
Sun, Apr 30
55 °FPassing clouds.6 mph63%29.50 "HgN/A
9:50 pm55 °FPartly cloudy.10 mph55%29.53 "HgN/A
8:50 pm55 °FOvercast.7 mph55%29.53 "HgN/A
7:50 pm57 °FPartly sunny.8 mph51%29.53 "HgN/A
6:50 pm57 °FPartly sunny.10 mph51%29.53 "HgN/A
5:50 pm59 °FPassing clouds.15 mph48%29.53 "HgN/A
4:50 pm61 °FScattered clouds.17 mph45%29.53 "HgN/A
3:50 pm59 °FRefreshingly cool.16 mph51%29.56 "HgN/A
2:50 pm59 °FRefreshingly cool.20 mph48%29.56 "HgN/A
1:50 pm57 °FRefreshingly cool.18 mph51%29.59 "HgN/A
12:50 pm57 °FRefreshingly cool.21 mph51%29.62 "HgN/A
11:50 am55 °FRefreshingly cool.21 mph55%29.62 "HgN/A
10:50 am55 °FRefreshingly cool.17 mph51%29.65 "HgN/A
9:50 am54 °FCool.15 mph58%29.68 "HgN/A
8:50 am52 °FPassing clouds.16 mph62%29.71 "HgN/A
7:50 am50 °FPassing clouds.13 mph71%29.74 "HgN/A
6:50 am46 °FPartly sunny.10 mph82%29.74 "HgN/A
5:50 am45 °FPassing clouds.9 mph81%29.77 "HgN/A
4:50 am45 °FQuite cool.10 mph81%29.80 "HgN/A
3:50 am46 °FCool.10 mph71%29.80 "HgN/A
2:50 am48 °FCool.12 mph66%29.83 "HgN/A
1:50 am48 °FPassing clouds.16 mph66%29.86 "HgN/A
12:50 am50 °FOvercast.14 mph62%29.89 "HgN/A
Weather by CustomWeather, © 2017

See weather overviewHow to use our weather pages